Regional Weather Roundup
Issued by NWS

Home | Current Version | Previous Version | Text Only | Print | Product List | Glossary Off
Versions: 1 2 3 4 5 6 7 8 9 10 11 12 13 14 15 16 17 18 19 20 21 22 23 24 25 26 27 28 29 30 31 32 33 34 35 36 37 38 39 40 41 42 43 44 45 46 47 48 49 50

000
ASUS43 KIND 272259
RWRIN

WEATHER ROUNDUP FOR INDIANA
NATIONAL WEATHER SERVICE INDIANAPOLIS IN
700 PM EDT THU APR 27 2017

NOTE: "FAIR" INDICATES FEW OR NO CLOUDS BELOW 12,000 FEET WITH NO
SIGNIFICANT WEATHER AND/OR OBSTRUCTIONS TO VISIBILITY.

* - STATION DOES NOT REPORT WEATHER SUCH AS PRECIPITATION OR FOG.

+ - STATION NOT QUALITY CONTROLLED BY THE NATIONAL WEATHER SERVICE.
    USE DATA WITH CAUTION...ESPECIALLY DEWPOINT AND RELATIVE
    HUMIDITY OBSERVATIONS.

INZ001>003-010>013-019-020-280000-
NORTHWEST INDIANA

CITY           SKY/WX    TMP DP  RH WIND       PRES   REMARKS
GARY /AIRPORT/ CLOUDY    50  37  62 W9G21     29.75R
MONTICELLO +   CLOUDY    49  42  77 W12       29.77R
RENSSELAER +   CLOUDY    48  41  76 SW13      29.76S

$$

LMZ046-743>745-280000-
SOUTHERN LAKE MICHIGAN

STATION/POSITION TIME  TEMP    WIND        PRES    WAVE
                       AIR SEA DIR/SP/G            HT
                 (UTC) (F)     (DEG/KT/KT) (MB)    (FT)
BURNS HARBOR     2240   49     210/ 17/ 21 1007.5R
MICHIGAN CITY    2230   48     200/ 16/ 18   N/A
5NW MICH CITY    2250   47 47                N/A     4

$$

INZ004-005-014>016-021>024-280000-
NORTH CENTRAL INDIANA

CITY           SKY/WX    TMP DP  RH WIND       PRES   REMARKS
ELKHART        CLOUDY    48  39  71 SW12G17   29.75R
GOSHEN         CLOUDY    49  38  65 W16G24    29.75R
SOUTH BEND     CLOUDY    47  39  74 W14G23    29.75R

$$

INZ006>009-017-018-025>027-280000-
NORTHEAST INDIANA

CITY           SKY/WX    TMP DP  RH WIND       PRES   REMARKS
ANGOLA *+      CLOUDY    48  41  76 W12       29.75R
FORT WAYNE     CLOUDY    52  43  71 W13       29.77R
KENDALLVILLE + CLOUDY    49  41  73 W12       29.75S

$$

INZ028-029-035-036-043>045-051>053-280000-
WEST CENTRAL INDIANA

CITY           SKY/WX    TMP DP  RH WIND       PRES   REMARKS
CRAWFORDSVL +  CLOUDY    50  45  83 SW13      29.80R
GREENCASTLE +  CLOUDY    52  43  71 SW5       29.82R
LAFAYETTE      CLOUDY    50  43  77 W9        29.78R
TERRE HAUTE    CLOUDY    54  43  66 SW13G20   29.81R

$$

INZ030>032-037>040-046>048-054>057-064-065-280000-
CENTRAL INDIANA

CITY           SKY/WX    TMP DP  RH WIND       PRES   REMARKS
COLUMBUS       CLOUDY    57  41  54 SW16      29.82R
INDIANAPOLIS   PTSUNNY   54  44  69 SW15      29.80R
-EAGLE CREEK   CLOUDY    55  43  63 SW8       29.79R
KOKOMO +       CLOUDY    52  43  71 W17       29.79R
SHELBYVILLE    CLOUDY    60  44  55 SW12      29.80R

$$

INZ033-034-041-042-049-050-058-059-280000-
EAST CENTRAL INDIANA

CITY           SKY/WX    TMP DP  RH WIND       PRES   REMARKS
MUNCIE         CLOUDY    57  43  59 W9        29.78R
RICHMOND +     CLOUDY    55  43  62 W16G24    29.81R

$$

INZ060-061-067>069-081>083-085>088-280000-
SOUTHWEST INDIANA

CITY           SKY/WX    TMP DP  RH WIND       PRES   REMARKS
EVANSVILLE     CLOUDY    61  49  64 SW10      29.83S
HUNTINGBURG *+ CLOUDY    59  50  72 SW8       29.83S

$$

INZ062-063-066-070>080-084-089>092-280000-
SOUTH CENTRAL AND SOUTHEAST INDIANA

CITY           SKY/WX    TMP DP  RH WIND       PRES   REMARKS
BLOOMINGTON    CLOUDY    56  44  64 SW10      29.82R
MADISON *+     PTSUNNY   61  45  55 SW7       29.84R

$$




USA.gov is the U.S. government's official web portal to all federal, state and local government web resources and services.